OneWeb SL0653

operational
NORAD ID: 55815 Int'l Des: 2023-029 Owner: ONEWEBN Country: UK Constellation: oneweb
LEOCIRCULARPOLARONEWEB_TYPE

Über OneWeb SL0653

Beschreibung wird geladen...

Live-Position

3D-Globus wird geladen...

Nächste Überflüge

Höhenverlauf

Altitude vs Time

uPlot chart will show altitude changes over time

Zweizeiliger Elementsatz

1 55815U 23029V 25351.68881174 .00000122 00000-0 29560-3 0 9999
2 55815 87.8985 325.8735 0001939 88.3972 271.7379 13.14504010135557
Epoch: 17. Dez. 2025 • Age: 17 hours

Aktueller Status

Höhe 1208.6 km
Geschwindigkeit 7.25 km/s
Subsatellitenpunkt 27.67°N, 88.81°W
Startdatum 9. März 2023
Alter 2.7 years
Typ internet

Technische Details

Klassifizierung Payload
Masse 148.00 kg
Trockenmasse 140.00 kg
Gesamtmasse 148.00 kg
Länge 1.30 m
Durchmesser 1.00 m
Spannweite 5.00 m
Form Trapezoid+2 pan
Hersteller ONEWUS
Bus-Typ ARROW
Phasenstatus In Orbit
Besitzer/Staat ONEWEBN/UK

Große Konstellationen

Loading constellations...